Wetbulb
52.29 53.06 52.25 51.58 50.88 50.30 49.94 50.12 50.86 50.02 49.51 49.19 49.25 49.81 48.53 47.77 47.31 46.46 46.18 44.61 44.21 43.03
51.99 50.89 50.37 50.90 51.05 50.25 50.26 49.03 48.65 48.62 48.08 47.78 47.61 47.41 47.70 46.64 45.96 45.47 44.69 44.51 43.92 42.63
49.39 50.98 50.69 50.11 48.85 48.21 47.72 47.01 46.25 45.83 45.65 45.46 45.75 46.18 45.92 45.67 45.51 44.46 43.93 43.29 42.45 41.68
49.82 48.93 48.48 47.71 47.12 46.31 46.32 45.72 44.98 44.72 44.67 44.76 44.66 44.97 44.57 44.39 43.52 42.14 42.12 42.36 41.05 40.14
47.62 47.60 46.85 45.88 45.77 46.12 45.23 45.44 44.76 44.46 44.25 44.04 43.78 43.94 42.85 42.09 42.36 40.70 39.00 39.49 39.52 38.17
46.18 45.59 45.31 45.21 45.40 45.26 44.91 44.62 44.37 44.20 43.59 43.39 43.33 42.67 41.94 41.09 40.46 39.73 39.19 38.61 37.96 37.28
44.61 45.02 45.14 44.99 44.57 44.58 44.58 43.90 43.66 43.66 43.19 41.36 40.28 40.95 40.21 39.09 38.14 37.99 38.06 38.33 38.12 37.26
44.59 44.69 44.42 44.24 44.31 44.24 44.02 43.60 43.61 42.98 41.73 40.64 39.83 39.29 38.81 38.95 38.40 37.59 37.37 37.55 36.81 36.38
42.78 42.47 42.75 43.24 43.44 43.42 43.11 43.08 42.95 41.33 40.18 39.66 39.16 33.21 33.68 33.24 36.80 36.64 35.98 34.84 35.08 35.20
41.25 40.98 41.47 42.06 42.32 42.25 42.25 42.34 41.06 39.71 39.35 38.85 39.82 33.88 33.13 31.20 34.71 35.25 35.36 34.62 33.88 33.29
40.79 40.46 41.21 41.43 41.61 41.93 42.04 40.95 39.46 38.92 39.29 37.26 38.03 33.17 31.89 30.54 33.71 35.13 34.93 34.37 33.70 32.90
40.43 40.02 40.62 40.59 41.03 41.17 40.64 39.79 38.02 38.18 38.29 37.81 36.75 31.64 31.06 30.23 33.52 33.57 32.75 32.90 33.40 32.58
40.41 40.18 39.99 39.92 38.96 39.62 39.94 38.96 37.65 36.59 37.12 33.60 36.09 31.20 30.63 30.21 32.74 33.03 30.00 31.93 32.10 29.42
40.41 40.04 39.89 39.21 38.62 38.07 38.47 37.35 35.95 35.06 35.44 35.88 35.75 34.64 30.66 29.50 30.48 30.44 29.81 29.51 30.07 31.09
MSLP
1021.99 1022.02 1022.37 1022.49 1022.72 1022.74 1022.58 1022.54 1022.66 1022.84 1022.87 1022.76 1022.52 1022.35 1022.33 1022.86 1022.92 1022.88 1023.00 1022.94 1022.94 1022.99
1022.30 1022.60 1022.65 1022.66 1022.88 1022.78 1022.74 1022.60 1022.68 1022.85 1022.72 1022.50 1022.29 1022.06 1021.94 1022.10 1022.33 1022.43 1022.47 1022.41 1022.66 1022.62
1022.58 1022.33 1022.49 1022.73 1022.82 1022.88 1022.93 1022.94 1022.84 1022.74 1022.58 1022.33 1022.08 1021.77 1021.54 1021.65 1021.85 1022.20 1022.39 1022.29 1022.13 1022.13
1022.06 1022.29 1022.50 1022.59 1022.74 1022.87 1022.97 1022.89 1022.85 1022.70 1022.45 1022.21 1021.98 1021.65 1021.45 1021.72 1021.92 1021.85 1021.88 1021.94 1022.11 1022.15
1022.09 1022.24 1022.33 1022.37 1022.59 1022.74 1022.86 1022.93 1022.83 1022.61 1022.32 1022.09 1021.75 1021.48 1021.53 1021.72 1021.73 1021.97 1022.14 1022.23 1022.28 1022.34
1021.82 1022.03 1022.15 1022.29 1022.50 1022.63 1022.71 1022.74 1022.64 1022.37 1022.18 1021.98 1022.06 1022.41 1022.50 1022.61 1022.60 1022.68 1022.54 1022.44 1022.35 1022.42
1021.84 1022.00 1022.11 1022.27 1022.40 1022.48 1022.56 1022.57 1022.36 1022.20 1022.14 1022.80 1023.03 1022.69 1022.68 1022.65 1022.60 1022.60 1022.44 1022.37 1022.31 1022.09
1021.83 1022.05 1022.12 1022.13 1022.22 1022.34 1022.34 1022.20 1021.95 1021.88 1022.25 1022.53 1022.72 1022.76 1022.70 1022.78 1022.65 1022.29 1022.24 1022.01 1021.83 1021.89
1021.91 1022.02 1021.98 1021.98 1022.00 1021.98 1021.89 1021.71 1021.64 1022.09 1022.38 1022.47 1022.53 1023.21 1023.07 1023.39 1022.83 1022.32 1022.00 1021.85 1021.93 1021.99
1022.02 1022.07 1022.00 1021.78 1021.62 1021.56 1021.45 1021.42 1021.70 1022.15 1022.31 1022.49 1022.48 1023.07 1023.35 1023.59 1023.39 1022.64 1022.04 1022.09 1022.06 1022.01
1022.02 1022.10 1021.98 1021.72 1021.44 1021.18 1021.09 1021.17 1021.75 1021.82 1022.03 1022.36 1022.65 1023.10 1023.20 1023.62 1023.27 1022.43 1022.14 1022.14 1022.09 1021.98
1022.08 1021.99 1021.78 1021.56 1021.27 1021.16 1020.96 1021.05 1021.59 1021.57 1021.73 1021.79 1022.47 1023.08 1023.26 1023.54 1022.99 1022.43 1022.42 1022.38 1022.00 1021.93
1021.99 1021.87 1021.61 1021.54 1021.75 1021.51 1021.06 1020.80 1021.35 1021.76 1021.82 1022.02 1022.10 1022.85 1023.09 1023.29 1023.02 1022.75 1022.79 1022.24 1021.99 1022.02
1021.86 1021.72 1021.63 1021.55 1021.57 1021.52 1020.91 1021.18 1021.72 1022.24 1022.13 1021.93 1022.20 1022.47 1022.80 1023.02 1023.08 1022.78 1022.49 1022.31 1021.96 1021.87
Wind_Speed
2 3 4 4 5 7 7 7 9 10 10 13 14 11 10 7 9 10 8 12 10 8
1 3 5 6 7 6 7 7 9 10 12 13 14 14 11 7 11 9 8 9 7 7
3 7 5 5 7 7 7 8 10 11 12 13 14 14 13 7 10 11 7 9 9 7
4 5 5 6 6 6 7 9 10 12 12 12 13 13 11 9 10 10 10 11 8 9
5 5 7 6 6 7 8 9 11 12 12 12 13 12 10 11 11 11 9 7 7 8
5 7 6 6 7 8 9 10 11 11 12 13 12 10 10 10 9 8 6 7 7 9
6 6 7 7 8 8 9 10 11 11 11 9 10 9 6 6 5 6 7 7 8 11
5 6 8 9 9 9 10 11 12 10 11 6 6 7 4 6 6 7 8 10 10 9
7 8 9 10 10 10 11 12 11 10 9 10 7 7 5 5 9 10 10 9 9 10
8 9 10 11 11 11 11 11 9 9 10 10 12 6 6 1 7 10 9 9 9 9
8 10 11 12 11 11 10 10 10 10 9 8 3 8 6 2 9 9 8 8 9 10
9 11 11 12 12 11 11 9 8 11 9 9 4 8 6 4 8 8 8 9 10 8
10 11 11 11 11 12 10 10 5 7 6 1 3 8 8 5 6 4 6 9 10 5
10 12 10 10 7 10 10 6 4 4 7 8 5 5 9 6 6 6 6 7 7 7
Wind_Direction
132 322 323 315 312 307 313 312 321 306 299 296 295 292 298 280 281 284 288 288 287 288
40 313 282 301 301 300 311 311 317 315 305 306 305 300 293 274 285 284 304 301 293 274
279 259 301 297 290 309 310 315 311 312 310 306 304 301 300 304 299 299 303 289 286 277
262 294 282 293 304 300 312 312 315 312 309 307 305 301 305 311 298 287 298 307 284 291
258 280 281 286 292 308 308 314 314 311 309 305 304 308 316 310 317 320 302 305 300 304
284 287 286 295 303 304 309 312 311 310 307 311 335 330 319 307 310 300 272 277 298 307
292 298 298 301 297 298 305 308 305 308 317 336 298 288 294 280 261 282 284 291 287 293
298 297 294 290 293 297 298 295 300 313 309 276 297 267 265 297 273 282 295 291 308 312
311 298 294 295 289 285 289 297 310 323 299 299 270 123 83 335 307 309 303 314 317 312
309 303 300 296 293 290 291 301 324 307 308 295 281 141 123 30 295 304 306 307 312 312
307 305 302 298 293 288 302 312 314 285 280 278 301 163 142 240 289 291 300 315 305 303
307 302 301 297 304 306 300 311 294 304 280 277 170 170 166 246 298 298 321 307 304 321
301 298 300 308 309 306 301 296 343 313 291 286 231 186 190 230 294 311 290 298 309 95
301 296 298 302 294 285 293 338 317 287 293 282 254 214 202 209 269 273 293 303 304 311